Location: Staunton
(38.1490°N, 79.0720°W)
Time: 20:43:28
(UTC-04:00)

ISS - Pass Details

Date: 28 May 2017
Orbit: 400 x 408 km, 51.6° (Epoch: 21 July)

Event Time Altitude Azimuth Distance (km) Brightness Sun altitude
Rises 01:40:49 0° 319° (NW) 2,339 0.6 -30.0°
Reaches altitude 10° 01:43:38 10° 345° (NNW) 1,473 -0.2 -29.9°
Enters shadow 01:45:06 14° 11° (NNE) 1,246 -0.5 -29.9°
